Hourly Data Report for October 09, 2015

All times are specified in Local Standard Time (LST). Add 1 hour to adjust for Daylight Saving Time where and when it is observed.

WINNIPEG A CS
MANITOBA

49°55'00.000" N
97°14'58.000" W
238.70 m
502S001
71849
XWG

Download Data

Hourly Data (October 2015)
Hourly Data Report for October 9, 2015
Temp Definition
°C
Dew Point Temp Definition
°C
Rel Hum Definition
%
Wind Dir Definition
10's deg

Wind Spd Definition
km/h
Visibility Definition
km
Stn Press Definition
kPa
Hmdx Definition


Wind Chill Definition


Weather Definition


TIME
00:00 3.1 2.8 98 25 7   99.43     LegendNANA
01:00 1.7 1.7 100 23 4   99.42     LegendNANA
02:00 0.7 0.7 100 25 5   99.41     LegendNANA
03:00 3.3 3.3 100 26 12   99.44     LegendNANA
04:00 2.2 2.0 99 27 14   99.47     LegendNANA
05:00 0.3 0.0 98 26 8   99.45     LegendNANA
06:00 1.3 1.3 100 19 2   99.46     LegendNANA
07:00 0.7 0.4 98 21 5   99.49     LegendNANA
08:00 2.2 2.0 99 19 7   99.47     LegendNANA
09:00 6.3 5.1 93 17 6   99.45     LegendNANA
10:00 9.5 6.3 80 18 11   99.40     LegendNANA
11:00 11.1 7.0 76 19 15   99.33     LegendNANA
12:00 12.9 7.4 69 19 21   99.21     LegendNANA
13:00 14.4 7.9 65 19 28   99.10     LegendNANA
14:00 14.3 7.1 62 18 29   98.92     LegendNANA
15:00 15.3 6.6 56 19 32   98.83     LegendNANA
16:00 14.6 7.0 60 20 37   98.68     LegendNANA
17:00 13.8 6.8 63 19 30   98.60     LegendNANA
18:00 12.4 6.8 69 18 30   98.48     LegendNANA
19:00 11.6 6.5 71 18 30   98.41     LegendNANA
20:00 10.9 6.5 74 18 32   98.30     LegendNANA
21:00 11.4 6.6 72 18 39   98.16     LegendNANA
22:00 11.9 6.9 72 19 36   98.08     LegendNANA
23:00 11.6 7.2 75 19 36   97.97     LegendNANA

Notes on Data Quality.

Legend

  • E = Estimated
  • M = Missing
  • NA = Not Available
  • ‡ = Partner data that is not subject to review by the National Climate Archives
Date modified: